Miscellaneous Local Product
Issued by NWS Hastings, NE

Home | Current Version | Previous Version | Graphics & Text | Print | Product List | Glossary On
Versions: 1 2 3 4 5 6 7 8 9 10 11 12 13 14 15 16 17 18 19 20 21 22 23 24 25 26 27 28 29 30 31 32 33 34 35 36 37 38 39 40 41 42 43 44 45 46 47 48 49 50
000
AXUS43 KGID 310702
MISGRI

GID CWA HOURLY WEATHER ROUNDUP
NATIONAL WEATHER SERVICE HASTINGS NE
200 AM CDT FRI OCT 31 2014

NOTE: "FAIR" INDICATES FEW OR NO CLOUDS BELOW 12,000 FEET WITH NO
SIGNIFICANT WEATHER AND/OR OBSTRUCTIONS TO VISIBILITY.

...SOUTH CENTRAL NEBRASKA...

CITY           SKY/WX    TMP DP  RH WIND       PRES   REMARKS
GRAND ISLAND   CLOUDY    37  31  78 N10       30.46R WCI  30
HASTINGS       CLOUDY    36  31  82 N12       30.44R WCI  28
KEARNEY        CLOUDY    36  30  80 NW12      30.47R WCI  27
ORD            CLOUDY    34  27  75 N13       30.48R WCI  25
YORK           CLOUDY    37  30  75 N21G31    30.44R WCI  27
AURORA         CLOUDY    37  29  74 N21G26    30.44S WCI  26
LEXINGTON      CLEAR     32  30  92 N7        30.47R WCI  26
HOLDREGE       CLEAR     33  30  88 CALM      30.45R
HEBRON         CLOUDY    40  32  71 N10       30.42R WCI  34

...NEBRASKA PANHANDLE...

CITY           SKY/WX    TMP DP  RH WIND       PRES   REMARKS
CHADRON        CLEAR     27  24  89 CALM      30.47R FOG
ALLIANCE       CLEAR     26  23  88 E5        30.45S WCI  20
SCOTTSBLUFF    CLEAR     33  30  88 E8        30.44R WCI  26
SIDNEY         CLEAR     29  26  89 SE7       30.45R WCI  22

...WESTERN AND NORTH CENTRAL NEBRASKA...

CITY           SKY/WX    TMP DP  RH WIND       PRES   REMARKS
VALENTINE      CLOUDY    32  27  81 NE12      30.52R WCI  23
AINSWORTH      CLOUDY    32  28  84 NE13      30.50S WCI  22
ONEILL         CLOUDY    33  26  77 N16G22    30.52R WCI  22
BROKEN BOW     CLOUDY    34  30  85 N16G23    30.47R WCI  24
IMPERIAL       CLEAR     33  27  78 CALM      30.47R
NORTH PLATTE   CLEAR     29  26  89 CALM      30.47R
MCCOOK         CLEAR     35  29  78 N5        30.47R WCI  31

...EASTERN NEBRASKA...

CITY           SKY/WX    TMP DP  RH WIND       PRES   REMARKS
NORFOLK        CLOUDY    35  24  64 N21G33    30.49R WCI  24
SO SIOUX CITY  PTCLDY    33  21  61 N18       30.50R WCI  22
TEKAMAH        CLOUDY    36  24  62 N24G32    30.47R WCI  24
ALBION         MOCLDY    36  26  67 N18G26    30.48R WCI  25
OMAHA EPPLEY   CLOUDY    38  27  64 N18G30    30.44R WCI  28
OFFUTT AFB     CLOUDY    40  29  64 N12G23    30.42R WCI  33
MILLARD        CLOUDY    38  26  63 NW17G24   30.44R WCI  28
LINCOLN        CLOUDY    40  28  62 N22G31    30.44R WCI  30
NEBRASKA CITY  CLOUDY    40  27  59 N17G24    30.39R WCI  31
BEATRICE       PTCLDY    39  30  70 N18G29    30.40R WCI  30
FALLS CITY     CLOUDY    43  34  70 N22G30    30.34R

...NORTHERN KANSAS...

CITY           SKY/WX    TMP DP  RH WIND       PRES   REMARKS
GOODLAND       CLEAR     32  28  85 E3        30.46R
HILL CITY      CLEAR     39  32  76 NE13      30.44R WCI  31
NORTON         SUNNY     37  30  75 N8        30.43R WCI  31
PHILLIPSBURG   CLEAR     41  36  81 N10       30.45R
BELOIT         FAIR      41  36  81 N16       30.40S
HAYS           CLEAR     41  28  60 N16G23    30.41R
RUSSELL        CLEAR     39  33  79 N13       30.40R WCI  31
CONCORDIA      PTCLDY    42  35  76 N15G24    30.39R
SALINA         CLOUDY    46  37  71 N14       30.38R
TOPEKA         MOCLDY    49  41  74 NW16G23   30.30R



USA.gov is the U.S. government's official web portal to all federal, state and local government web resources and services.